Tracking 20382 objects as of 24-Feb-2020
HD Live streaming from Space Station
objects crossing your sky now
Track the group of recently launched Starlink satellites

COSMOS 962

Track COSMOS 962 now!
10-day predictions
COSMOS 962 is classified as:


NORAD ID: 10459
Int'l Code: 1977-107A
Perigee: 968.0 km
Apogee: 1,011.9 km
Inclination: 82.9 °
Period: 104.8 minutes
Semi major axis: 7360 km
RCS: 1.6429 m2 (large)
Launch date: October 28, 1977
Source: Commonwealth of Independent States (former USSR) (CIS)
Launch site: PLESETSK MISSILE AND SPACE COMPLEX (PKMTR)
aabbcc
Your satellite tracking list
Your tracking list is empty




NASA's NSSDC Master Catalog

Two Line Element Set (TLE):
1 10459U 77107A   20054.55455330 +.00000007 +00000-0 -89272-5 0  9993
2 10459 082.9489 044.9680 0029812 063.8367 075.5031 13.74686900122603
Source of the keplerian elements: AFSPC